sat.trackr.live / text

‹ back to catalog

STARLINK-5859

NORAD 55915 · 2023-037B

PAYLOAD ACTIVE UNKNOWN

§ Identity

Operator
Country
US
Launch date
2023-03-17
Launch site
AFWTR
Launch vehicle
Mass (kg)
RCS (m²)

Purposes: comms

External: N2YO · Heavens-Above · Gunter

§ Orbital elements

Epoch: 2026-09-20T05:06:43.085088Z

Period
96.11 min
Inclination
70.0000°
Eccentricity
0.0002957
Mean motion
14.98331537 rev/d
Perigee alt
570.0 km
Apogee alt
574.1 km
Semi-major
6,950.2 km
B*
9.7562e-5
RAAN
174.0448°
Arg perigee
270.7362°
Mean anomaly
89.3459°
Rev number
19,330

§ Raw data

STARLINK-58591 55915U 23037B   26263.21299867  .00001071  00000+0  97562-4 0  99942 55915  70.0000 174.0448 0002957 270.7362  89.3459 14.98331537193300

JSON: /api/v1/satellites/55915 · /tle

For live sub-satellite position, see the globe view (requires WebGL).

§ Visibility from observer

Set your observer location to see the next 7 days of passes ≥ 10°. The values pass through the URL so the page stays shareable.

No JS? Fill the form by hand. The geolocation button needs JavaScript.